Theta_e
344 340 325 322 311 307 303 307 314 318 319 323 328 323 319 324 319 310 337 343 344 344 346 349 352 351 350 352 355 355 356 355 353 352 351 350 349 349 350 353 349 351 353 352 351 351 351 351 351
336 331 319 316 306 300 304 310 311 317 321 323 323 321 322 321 335 335 337 344 345 345 343 345 351 351 351 354 355 356 354 353 352 351 350 348 347 347 347 348 350 348 352 353 351 351 350 350 350
328 320 312 309 303 300 303 312 318 320 324 327 321 325 325 325 336 336 341 345 345 342 342 344 351 351 351 355 356 354 353 352 351 350 348 346 348 348 349 348 348 349 348 351 351 350 349 350 350
310 313 312 303 301 306 310 313 322 320 324 324 322 319 327 339 337 341 344 345 343 340 340 348 351 352 351 354 355 353 353 351 350 349 346 347 348 348 349 349 348 347 347 348 348 349 348 349 349
307 309 303 303 305 309 313 321 322 320 324 322 323 318 321 337 342 343 342 342 339 337 340 345 352 352 352 353 354 353 353 351 350 348 346 348 348 348 348 348 347 348 346 347 347 348 347 348 348
304 305 298 299 303 312 315 318 321 321 323 323 321 319 321 338 339 340 341 338 340 339 340 343 352 352 351 352 352 352 352 351 350 348 347 347 348 346 346 347 347 347 347 346 346 346 346 348 349
302 298 296 298 305 307 314 319 319 321 322 323 324 317 323 333 337 339 337 337 339 340 339 340 344 348 352 352 352 352 352 351 351 350 348 346 346 344 344 344 345 346 347 347 347 347 347 348 349
304 300 295 299 302 306 314 319 324 323 324 329 327 318 318 329 336 336 335 334 335 337 338 337 341 343 343 345 352 352 352 351 351 349 348 347 345 344 343 343 344 342 345 345 346 347 346 347 348
302 296 293 297 305 308 313 312 325 329 326 327 328 325 327 333 335 333 331 332 335 337 333 335 338 339 340 341 347 352 351 351 350 349 349 348 341 339 340 341 342 343 343 343 344 346 347 348 346
299 294 296 301 308 309 310 312 322 324 324 324 324 327 330 333 332 329 328 328 330 332 335 333 335 337 337 343 341 343 343 344 344 345 343 343 340 338 340 342 345 348 347 346 346 345 347 341 336
296 296 299 302 305 309 304 305 322 322 318 324 321 323 328 330 330 329 330 330 329 332 335 335 334 336 336 338 337 338 339 340 341 342 341 341 341 337 337 338 337 336 337 336 335 334 332 332 334
296 300 301 302 303 302 302 304 316 322 322 328 326 326 327 328 328 329 329 328 327 328 332 334 334 334 335 334 335 335 335 336 337 339 340 337 337 336 336 336 338 336 335 333 334 334 334 331 332
296 299 301 302 302 300 303 308 314 321 325 328 326 325 326 327 328 330 331 331 329 326 329 331 333 333 334 331 332 333 333 335 335 335 337 337 335 334 336 337 337 336 334 333 333 335 335 335 333
299 299 300 300 301 299 309 313 318 320 325 323 323 322 325 326 327 328 327 327 327 327 327 329 331 332 331 332 331 333 332 332 332 332 333 336 335 335 335 336 336 337 335 336 336 337 336 335 332
299 297 299 299 300 306 315 311 313 323 324 321 322 323 323 325 327 327 328 327 329 328 327 327 329 330 329 331 330 331 331 331 331 332 333 335 336 336 337 337 337 337 339 338 337 336 333 332 331
295 295 292 298 300 312 312 305 312 324 322 320 321 323 324 324 324 326 328 328 329 329 327 327 330 328 328 328 329 330 329 330 331 331 332 335 337 338 337 337 337 339 338 338 332 332 331 330 329
292 289 290 296 299 306 304 302 312 324 322 321 322 323 324 324 326 325 326 327 327 328 327 326 328 327 327 327 329 329 327 329 331 331 332 335 337 339 338 338 339 339 338 336 332 330 331 329 329
288 289 291 293 297 299 297 304 310 321 323 322 322 323 324 325 326 329 326 325 325 327 328 327 327 328 327 327 327 326 326 326 330 331 333 335 337 340 339 340 340 340 337 336 332 331 330 330 330
293 292 292 295 298 295 295 296 301 313 321 321 321 322 323 325 328 329 329 324 323 323 325 325 325 326 326 324 323 324 326 327 328 330 332 335 337 340 340 339 340 339 336 336 335 333 331 331 332
293 291 291 296 297 296 296 298 305 311 318 322 322 323 323 323 324 327 327 326 320 321 323 324 324 325 326 327 328 327 328 327 330 332 331 334 338 340 341 340 339 339 339 337 333 333 332 332 331
291 290 291 293 296 296 295 294 299 312 314 317 319 321 322 322 322 324 324 326 323 320 321 324 324 325 327 328 326 328 329 329 329 330 331 333 338 340 341 342 342 340 339 335 333 332 331 328 330
288 295 296 294 292 289 293 288 293 301 309 314 315 316 317 319 320 321 322 322 324 322 322 323 325 325 327 328 328 328 328 326 329 331 333 334 338 340 341 342 342 339 338 335 335 335 333 331 327
295 297 296 295 290 288 291 288 291 302 307 315 321 321 317 320 320 320 320 321 323 323 321 322 324 325 327 328 329 328 328 330 329 330 330 333 335 338 342 343 341 340 338 336 336 337 334 333 330
300 296 293 290 288 285 289 289 290 301 309 319 321 323 326 326 327 328 329 328 321 321 321 322 322 325 327 328 328 328 328 329 329 332 332 332 334 336 340 340 339 338 337 336 336 336 336 334 333
295 290 285 285 284 285 291 297 300 313 322 321 317 317 319 321 324 325 325 328 331 330 326 324 323 322 326 328 329 331 330 333 330 333 335 334 334 335 336 337 338 337 337 337 337 336 336 335 333
291 291 286 283 283 286 293 294 303 319 322 321 317 315 316 316 317 319 321 325 331 331 333 334 331 323 327 329 331 334 335 328 327 327 326 327 328 335 337 338 338 337 338 338 337 336 334 333 332
292 290 291 288 286 286 290 300 308 315 316 319 317 317 316 316 317 319 324 329 330 331 332 334 334 330 329 333 336 332 329 328 328 326 327 327 330 332 336 338 336 336 335 334 334 333 333 333 330
295 297 290 288 283 282 291 294 298 307 311 316 316 315 315 317 320 324 327 329 332 333 334 334 334 335 337 336 332 330 329 329 329 330 328 327 331 331 332 334 333 333 334 332 332 329 327 325 324
294 292 290 290 288 284 286 294 308 309 311 314 316 318 318 319 325 327 328 330 330 331 333 333 332 332 332 332 332 332 331 331 330 328 327 329 331 332 334 333 331 330 330 330 328 321 321 319 318
295 292 291 288 287 288 292 295 314 312 313 315 321 323 327 329 330 330 329 328 327 328 330 330 330 330 330 330 329 329 331 330 328 327 327 333 331 331 330 328 325 323 322 322 320 318 317 316 314
Wind_Speed
6 6 2 3 4 5 3 3 1 1 5 2 7 4 7 3 3 4 2 2 13 12 7 10 15 14 14 15 15 14 14 14 13 13 12 12 11 11 9 9 10 9 11 11 11 11 10 8 7
5 3 3 2 6 5 5 4 3 1 2 6 8 3 4 1 3 5 7 7 13 12 7 7 15 15 15 14 13 13 13 13 13 13 12 11 10 10 10 9 8 9 9 11 12 11 10 8 6
6 2 4 5 3 3 4 1 4 3 3 3 3 5 3 2 2 8 6 12 11 8 7 8 16 16 15 14 13 13 12 11 11 11 11 10 9 8 9 9 8 8 8 9 11 10 9 9 8
2 4 5 5 2 4 3 3 5 4 2 4 4 6 4 3 7 7 12 13 11 8 6 12 16 16 15 14 12 12 11 10 10 10 10 9 8 8 9 8 9 9 7 8 8 8 7 7 6
4 3 5 3 4 4 3 3 8 5 2 3 2 2 3 3 9 14 14 12 12 7 5 8 16 15 14 13 12 12 11 10 9 10 9 8 7 6 8 8 7 9 10 8 7 6 6 5 3
4 3 5 1 4 4 3 4 4 5 3 3 4 4 2 4 10 12 11 10 8 9 5 5 14 15 14 13 12 11 10 9 9 9 8 7 6 5 4 5 7 6 8 8 7 7 6 5 3
6 4 3 3 3 4 1 6 6 6 5 2 8 4 1 3 6 8 9 8 7 6 6 4 5 9 13 13 12 11 10 9 8 7 6 6 6 4 3 4 5 5 5 6 7 8 6 5 5
5 5 2 3 2 4 3 2 4 3 2 4 6 5 5 5 9 8 7 6 6 5 5 5 5 5 5 6 13 12 11 10 8 7 6 5 4 3 3 3 3 3 5 5 5 6 4 4 4
4 5 1 3 1 2 1 4 3 1 6 2 5 6 5 17 13 9 6 4 7 5 5 5 5 5 5 5 7 11 12 10 9 7 6 3 1 0 1 1 0 2 1 2 4 4 2 2 2
5 4 6 4 3 1 1 3 8 3 3 3 4 6 16 17 14 12 10 9 9 9 8 6 6 6 6 5 5 5 4 4 4 3 3 2 2 2 2 2 4 1 1 2 2 4 1 2 1
3 5 5 4 7 5 3 3 9 8 5 8 9 14 16 16 13 12 12 14 18 11 7 9 7 6 7 5 4 3 2 2 3 4 4 3 2 2 1 1 2 2 1 0 0 4 2 1 2
2 5 4 5 4 3 4 2 6 8 9 5 13 20 16 17 15 14 13 11 10 12 13 9 8 8 8 4 5 5 4 3 3 4 5 3 2 3 3 1 3 2 2 4 2 1 4 3 4
4 4 5 5 9 8 1 7 7 9 1 9 17 17 16 16 16 14 14 12 8 9 12 11 11 10 9 6 4 4 5 4 5 4 4 3 3 4 2 3 3 3 2 3 3 2 3 2 2
4 4 6 5 8 4 2 1 7 5 9 9 16 16 14 15 16 13 9 10 11 10 12 11 13 11 8 10 7 7 5 6 4 4 5 6 4 4 4 3 4 4 3 3 3 3 2 2 2
2 5 6 3 2 2 6 1 8 5 8 10 12 14 13 15 12 15 15 14 15 13 11 14 14 11 12 13 9 6 6 6 6 6 6 7 6 6 6 4 4 5 4 4 3 4 2 2 2
2 5 4 6 4 3 5 9 2 7 12 10 11 11 13 14 16 16 14 15 14 12 12 12 12 13 12 11 8 7 6 6 7 7 6 10 9 9 6 5 5 4 4 3 3 2 2 2 3
6 3 3 5 4 4 3 6 4 9 10 9 10 10 12 12 11 15 16 15 14 16 12 12 12 14 15 11 7 6 6 6 6 5 6 8 9 10 8 7 7 5 3 4 4 3 3 3 3
4 2 2 4 3 6 3 9 4 7 12 14 10 10 12 13 20 15 13 15 13 14 14 14 13 14 12 6 4 3 3 5 4 5 6 8 8 9 7 6 6 4 4 4 3 5 3 3 3
2 0 2 4 4 2 4 8 11 6 7 10 12 12 14 16 13 10 9 11 11 10 12 13 12 12 8 5 4 3 8 6 6 7 9 9 9 10 9 7 6 6 7 7 5 3 6 4 3
2 0 5 7 2 3 2 9 3 5 13 16 11 12 15 13 10 9 8 7 9 12 13 11 13 11 11 8 7 4 5 4 4 4 6 9 10 8 9 9 9 8 5 2 2 5 3 2 3
3 5 4 6 7 4 4 8 6 4 3 4 8 7 10 13 9 9 9 9 6 8 7 9 11 12 13 14 5 3 3 2 3 4 4 7 7 7 8 9 8 4 3 0 2 3 3 2 1
4 10 6 3 4 4 2 5 7 12 9 5 8 8 9 13 5 6 8 9 10 10 9 10 8 10 12 10 8 11 10 8 6 7 6 4 5 6 8 8 4 4 3 4 4 5 6 5 6
9 7 8 5 4 2 4 5 8 7 12 18 17 18 17 9 8 7 9 11 14 9 9 10 11 10 9 11 12 9 8 1 2 3 3 2 4 6 7 5 7 7 7 8 9 6 7 7 4
4 4 7 6 4 2 4 4 6 7 8 18 17 16 14 9 8 8 7 8 7 6 7 8 11 10 7 7 7 5 5 5 5 4 3 2 3 3 5 3 6 8 8 7 5 7 9 9 8
5 6 4 3 3 5 1 8 4 7 10 8 12 14 13 11 12 12 14 13 12 12 9 3 3 4 7 9 9 9 9 12 11 7 3 3 1 2 4 1 3 7 5 1 2 5 7 10 9
6 8 7 5 5 4 4 3 4 4 6 7 7 7 9 12 9 13 12 9 8 10 10 8 3 6 8 7 8 10 11 8 8 9 6 5 4 3 4 4 9 6 6 4 3 2 2 3 1
4 3 3 10 2 4 3 1 4 2 6 10 13 13 15 13 13 11 10 13 13 13 12 12 8 2 6 9 10 10 10 10 6 7 6 6 8 6 1 5 7 4 5 4 2 1 1 1 3
5 6 4 4 5 3 3 2 3 6 9 12 14 13 12 12 12 11 13 14 13 14 13 11 11 9 9 11 10 10 10 8 5 3 5 3 1 3 0 2 4 1 5 1 2 4 5 6 6
3 1 7 6 4 7 5 4 4 5 4 6 7 6 8 9 12 14 14 13 13 11 11 11 11 10 8 8 8 7 6 4 3 3 2 1 2 2 1 5 6 5 7 6 7 7 6 7 6
3 5 6 7 3 2 5 4 3 5 4 3 4 6 8 9 10 9 10 9 11 11 11 11 11 10 10 9 8 8 5 5 4 1 3 3 10 11 11 9 10 8 7 7 7 6 5 4 7
Wind_Direction
141 144 136 58 59 63 345 326 227 81 325 25 124 174 176 99 187 211 120 161 133 141 147 151 151 140 130 127 127 121 113 115 109 108 104 101 101 100 94 110 118 115 117 114 109 100 90 87 90
132 138 42 83 78 52 296 288 359 276 54 93 75 93 51 94 93 124 123 152 137 142 134 143 149 142 135 135 129 123 120 120 119 116 109 105 102 102 105 106 111 123 116 119 115 109 107 108 109
149 49 77 84 94 160 231 269 111 120 65 60 84 61 113 162 91 153 136 137 133 124 133 161 152 144 141 140 131 125 127 123 121 116 110 110 109 111 108 112 119 123 130 123 122 120 115 114 107
119 12 35 79 213 253 235 314 129 127 145 99 118 87 68 205 157 143 134 133 132 131 149 163 153 146 147 144 134 137 133 130 128 116 115 112 112 116 112 114 120 120 117 116 117 110 104 107 101
38 56 56 65 276 273 255 214 143 159 125 157 84 130 59 44 103 136 141 139 143 141 166 150 155 151 149 142 150 145 142 142 135 123 117 113 112 112 116 118 115 121 125 120 115 101 83 69 76
45 89 57 267 264 253 259 186 184 145 141 123 83 92 179 116 137 152 143 138 139 145 149 164 158 153 149 154 159 154 155 157 142 133 126 130 121 109 92 100 106 113 118 124 132 123 109 98 106
112 86 192 215 264 303 230 155 185 147 141 159 143 114 327 190 137 139 128 116 124 128 138 157 150 159 159 165 167 166 168 168 153 144 144 143 136 123 96 80 88 92 99 113 117 119 118 112 96
107 95 125 248 262 287 302 133 139 112 132 110 133 179 199 176 132 103 92 95 116 135 147 164 152 153 160 173 176 174 178 175 167 163 166 161 154 145 119 76 45 98 116 111 105 107 118 124 130
122 66 225 246 197 336 112 80 11 30 118 174 165 149 164 127 117 109 111 114 160 171 174 174 165 168 168 185 189 182 184 183 180 179 185 180 122 55 333 225 18 13 34 100 115 109 132 140 146
95 113 213 227 222 224 257 161 171 134 141 229 90 59 125 131 143 149 166 173 187 192 195 190 176 183 173 188 200 178 191 180 182 188 199 173 213 217 246 299 307 289 358 17 59 93 87 89 289
158 184 201 229 228 212 270 270 183 141 219 204 176 147 146 145 159 169 183 188 192 189 190 193 188 188 184 196 179 184 188 180 195 197 204 200 218 273 300 313 328 337 328 228 315 122 124 204 263
148 223 221 262 258 275 224 191 189 178 217 165 156 161 153 164 172 184 193 190 180 187 196 184 190 192 199 186 189 187 179 184 204 204 201 208 209 235 257 266 287 288 292 310 321 309 159 186 218
180 244 209 236 280 249 317 224 205 211 48 98 142 160 170 175 179 192 197 194 184 193 194 195 186 194 199 197 189 184 192 193 206 210 197 192 215 225 226 238 237 258 274 263 282 270 296 326 274
213 232 269 266 256 242 121 297 148 232 106 122 150 172 179 186 193 193 190 194 195 195 202 188 198 198 189 201 196 196 184 201 197 213 208 202 210 214 226 236 238 242 228 241 244 259 235 241 236
268 312 341 307 322 47 123 341 236 123 128 144 176 181 185 199 197 204 199 198 200 204 194 195 195 192 198 203 201 194 197 192 197 212 203 205 204 218 222 228 244 238 224 235 242 258 235 212 230
42 46 9 292 325 159 76 263 58 146 141 170 194 200 194 200 206 210 205 207 201 200 191 194 197 195 202 205 197 202 196 197 209 203 202 207 207 208 219 231 230 223 223 207 217 210 219 225 232
359 191 223 324 347 127 89 274 251 171 158 186 197 210 220 218 214 213 213 205 203 203 192 190 196 197 199 205 193 200 201 207 215 212 213 218 215 211 208 216 226 204 213 211 197 196 191 207 211
219 195 229 183 302 20 257 260 249 216 179 195 200 210 220 225 232 212 210 217 208 206 202 197 195 202 196 189 175 181 209 219 213 210 218 220 225 221 209 224 221 194 208 218 197 201 194 207 230
170 202 284 182 253 253 222 268 265 206 206 211 211 206 225 228 235 235 211 207 217 209 204 201 183 199 173 166 168 203 223 225 231 226 222 213 214 211 204 213 219 200 211 211 219 199 188 227 202
128 282 285 289 179 208 342 298 243 199 226 217 213 220 229 241 235 241 234 217 200 216 212 200 196 188 191 194 202 201 191 214 239 229 238 229 220 210 208 209 216 207 208 177 9 328 311 75 97
199 179 227 228 344 355 12 318 338 339 331 219 225 232 238 243 232 238 241 248 214 221 223 221 207 194 188 193 153 125 94 107 151 205 214 220 216 220 222 217 221 179 154 251 122 149 271 251 220
259 202 195 164 72 224 71 260 30 336 335 332 340 298 271 254 253 234 227 235 231 220 197 205 206 203 199 184 189 202 211 213 218 217 219 195 202 222 224 228 196 159 166 190 167 167 207 193 212
228 154 175 161 162 97 308 87 304 353 341 339 341 317 298 259 219 231 232 229 231 202 204 192 190 201 202 195 197 194 212 296 36 15 33 328 258 229 222 187 169 176 182 177 179 199 202 214 212
132 78 46 53 85 47 263 119 328 358 321 326 339 343 350 8 16 16 353 349 311 250 209 194 195 206 174 170 185 157 97 95 84 47 30 353 321 338 311 218 191 207 218 180 174 176 206 205 206
102 70 26 19 27 201 23 58 228 327 356 1 344 338 347 12 26 28 17 12 5 12 10 6 166 187 173 171 166 140 127 109 93 81 65 104 118 260 231 257 284 283 311 275 195 202 224 225 214
164 157 149 165 177 213 26 71 311 358 310 324 330 314 348 4 10 27 15 9 15 18 20 8 346 180 175 152 123 126 122 120 120 120 127 105 57 305 227 170 256 244 265 249 220 169 188 169 268
171 172 164 106 354 79 140 52 272 297 333 351 348 353 358 353 9 12 8 29 32 34 32 22 0 137 122 119 126 121 128 130 132 139 155 153 158 205 140 179 213 39 298 315 4 62 150 144 101
129 152 77 9 118 133 23 79 226 339 337 342 355 351 343 352 11 18 27 30 26 25 26 20 31 57 95 116 118 131 130 128 130 144 196 200 166 147 207 168 115 165 258 262 53 60 62 97 82
109 83 53 109 104 150 142 252 233 255 306 324 342 354 359 10 19 27 28 23 27 22 30 29 33 45 64 86 93 66 56 75 106 200 224 316 240 37 201 74 68 75 80 82 74 77 75 90 98
139 142 128 119 209 68 121 236 248 253 334 315 33 43 46 42 35 39 41 36 45 33 36 32 27 33 28 32 31 24 39 89 130 109 247 213 68 63 65 56 53 53 52 60 65 80 75 80 93